Regional Weather Roundup
Issued by NWS

Home | Current Version | Previous Version | Graphics & Text | Print | Product List | Glossary On
Versions: 1 2 3 4 5 6 7 8 9 10 11 12 13 14 15 16 17 18 19 20 21 22 23 24 25 26 27 28 29 30 31 32 33 34 35 36 37 38 39 40 41 42 43 44 45 46 47 48 49 50
832
ASUS44 KJAN 021910
RWRMS

MISSISSIPPI HOURLY WEATHER ROUNDUP
NATIONAL WEATHER SERVICE JACKSON MS
100 PM CST MON MAR 02 2015

NOTE: "FAIR: INDICATES FEW OR NO CLOUDS BELOW 12,000 FEET WITH NO
SIGNIFICANT WEATHER AND/OR OBSTRUCTIONS TO VISIBILITY.

MSZ001>002-007>008-010>013-018>021-025>028-034>036-022000-
NORTHWEST MISSISSIPPI

CITY           SKY/WX    TMP DP  RH WIND       PRES   REMARKS
CLARKSDALE     CLOUDY    37  37 100 N14       30.39F WCI  29
CLEVELAND      CLOUDY    40  39  99 N12       30.36F WCI  32
GREENWOOD        N/A    N/A N/A N/A MISG      30.33F
GREENVILLE     CLOUDY    40  37  89 N14       30.35F FOG     WCI  32
OLIVE BRANCH   CLOUDY    39  36  87 N8        30.38F WCI  34
OXFORD         CLOUDY    39  36  87 NE7       30.37F FOG     WCI  34
TUNICA         RAIN      37  34  87 N7        30.41F WCI  32
$$

MSZ003>006-009-014>017-022>024-029>033-037>039-022000-
NORTHEAST MISSISSIPPI

CITY           SKY/WX    TMP DP  RH WIND       PRES   REMARKS
COLUMBUS AFB   LGT RAIN  46  46 100 N9        30.33F
CORINTH        CLOUDY    45  36  70 NE8       30.35F
GOLDN TRIANGLE CLOUDY    46  45  93 N8        30.33F FOG
STARKVILLE     CLOUDY    45  45 100 N5        30.33F FOG
TUPELO         CLOUDY    42  38  85 E7        30.36F
$$

MSZ040-058-022000-
CENTRAL MISSISSIPPI

CITY           SKY/WX    TMP DP  RH WIND       PRES   REMARKS
JACKSON INTL   FOG       52  51  97 W3        30.30F VSB 3/4
JACKSON HAWKNS FOG       50  49  96 NW5       30.30F VSB 3/4
MERIDIAN KEY   CLOUDY    58  55  90 NE9       30.29F
MERIDIAN NAS   CLOUDY    53  52  96 N9        30.31F
VICKSBURG      CLOUDY    44  42  93 NW6       30.32F
$$

MSZ059>079-022000-
SOUTH MISSISSIPPI

CITY           SKY/WX    TMP DP  RH WIND       PRES   REMARKS
BROOKHAVEN     LGT RAIN  57  57 100 N5        30.29F
HATTIESBURG    CLOUDY    62  61  96 CALM      30.28F FOG
MCCOMB         CLOUDY    64  62  93 CALM      30.25F
NATCHEZ        CLOUDY    46  45  93 N9        30.28F
PINE BELT      CLOUDY    61  57  88 NE5       30.28F
$$

MSZ080>082-022000-
COASTAL MISSISSIPPI

CITY           SKY/WX    TMP DP  RH WIND       PRES   REMARKS
BAY ST LOUIS   CLOUDY    66  63  88 CALM      30.25F FOG
BILOXI         DRIZZLE   66  66 100 SE5       30.24F FOG
PASCAGOULA     CLOUDY    70  66  87 S7        30.25F
GULFPORT       LGT RAIN  63  63 100 SE3       30.25F VSB 1/4
$$



USA.gov is the U.S. government's official web portal to all federal, state and local government web resources and services.